Location: Gouy
(50.0008°N, 3.2556°E)
Time: 21:21:09
(UTC+00:00)

Cosmos 2322 Rocket - Pass Details

Date: 23 May 2024
Orbit: 832 x 850 km, 71.0° (Epoch: 14 June)

Event Time Altitude Azimuth Distance (km) Brightness Sun altitude
Rises 00:50:23 0° 333° (NNW) 3,400 6.1 -17.8°
Reaches altitude 10° 00:52:59 10° 340° (NNW) 2,465 5.4 -17.7°
Maximum altitude 00:58:20 42° 51° (NE) 1,195 3.4 -17.5°
Drops below altitude 10° 01:03:40 10° 122° (ESE) 2,463 4.5 -17.2°
Sets 01:06:15 0° 129° (SE) 3,398 5.2 -17.0°
